QPF
0.00 0.00 0.00 0.00 0.00 0.00 0.00 0.01 0.00 0.00 0.00 0.00 0.00 0.00 0.00 0.00 0.00 0.01 0.01 0.02 0.01 0.01 0.02 0.01 0.02 0.02 0.02 0.02 0.04 0.03 0.02 0.02 0.02 0.03 0.03 0.02 0.01 0.01 0.01 0.01 0.01 0.01 0.01 0.01 0.01 0.01 0.01 0.01 0.01
0.00 0.00 0.00 0.00 0.00 0.00 0.01 0.01 0.00 0.00 0.00 0.00 0.00 0.00 0.00 0.00 0.00 0.00 0.01 0.02 0.01 0.01 0.02 0.01 0.01 0.02 0.03 0.03 0.03 0.03 0.03 0.03 0.03 0.03 0.04 0.04 0.02 0.02 0.02 0.01 0.01 0.01 0.02 0.01 0.01 0.01 0.01 0.01 0.01
0.00 0.00 0.00 0.00 0.00 0.00 0.00 0.00 0.00 0.00 0.00 0.00 0.00 0.00 0.00 0.00 0.00 0.01 0.02 0.01 0.01 0.01 0.02 0.01 0.02 0.02 0.03 0.04 0.04 0.03 0.03 0.03 0.03 0.03 0.04 0.04 0.04 0.03 0.03 0.02 0.01 0.01 0.02 0.02 0.01 0.01 0.01 0.01 0.00
0.00 0.00 0.00 0.00 0.00 0.00 0.00 0.00 0.00 0.00 0.00 0.00 0.00 0.00 0.00 0.00 0.00 0.01 0.02 0.01 0.01 0.01 0.02 0.02 0.02 0.02 0.02 0.03 0.04 0.03 0.03 0.03 0.03 0.03 0.03 0.04 0.04 0.03 0.03 0.03 0.02 0.02 0.01 0.01 0.01 0.00 0.00 0.00 0.00
0.01 0.00 0.00 0.00 0.00 0.00 0.00 0.00 0.00 0.00 0.00 0.00 0.00 0.00 0.00 0.00 0.00 0.00 0.01 0.01 0.01 0.01 0.02 0.02 0.02 0.02 0.01 0.02 0.03 0.04 0.04 0.03 0.03 0.04 0.04 0.04 0.04 0.03 0.02 0.01 0.02 0.02 0.02 0.02 0.01 0.01 0.00 0.00 0.00
0.01 0.00 0.00 0.00 0.00 0.00 0.00 0.00 0.00 0.00 0.00 0.00 0.00 0.00 0.00 0.00 0.00 0.00 0.00 0.01 0.01 0.01 0.02 0.03 0.03 0.02 0.02 0.02 0.03 0.05 0.06 0.04 0.03 0.03 0.03 0.03 0.03 0.03 0.02 0.01 0.01 0.01 0.02 0.02 0.02 0.02 0.01 0.00 0.00
0.01 0.01 0.00 0.00 0.00 0.00 0.00 0.00 0.00 0.00 0.00 0.00 0.00 0.00 0.00 0.00 0.00 0.00 0.00 0.01 0.01 0.01 0.02 0.03 0.03 0.02 0.02 0.02 0.02 0.03 0.03 0.03 0.02 0.02 0.03 0.02 0.02 0.02 0.01 0.01 0.01 0.01 0.02 0.02 0.01 0.01 0.01 0.00 0.00
0.01 0.01 0.00 0.00 0.00 0.00 0.00 0.00 0.00 0.00 0.00 0.00 0.00 0.00 0.01 0.00 0.00 0.00 0.00 0.01 0.01 0.02 0.03 0.04 0.04 0.03 0.03 0.03 0.02 0.02 0.03 0.04 0.04 0.05 0.06 0.05 0.04 0.03 0.03 0.02 0.01 0.01 0.01 0.02 0.01 0.01 0.01 0.01 0.00
0.01 0.01 0.00 0.00 0.00 0.00 0.00 0.00 0.00 0.00 0.00 0.00 0.00 0.00 0.00 0.00 0.00 0.00 0.01 0.01 0.01 0.02 0.03 0.05 0.05 0.05 0.05 0.04 0.03 0.03 0.03 0.04 0.03 0.03 0.04 0.05 0.05 0.06 0.05 0.03 0.02 0.01 0.02 0.01 0.01 0.02 0.01 0.00 0.00
0.01 0.01 0.00 0.00 0.00 0.00 0.00 0.00 0.00 0.00 0.00 0.00 0.00 0.00 0.01 0.01 0.01 0.01 0.02 0.02 0.02 0.02 0.03 0.05 0.06 0.06 0.05 0.05 0.04 0.04 0.03 0.04 0.04 0.04 0.02 0.02 0.03 0.05 0.05 0.05 0.03 0.01 0.01 0.01 0.01 0.02 0.00 0.00 0.00
0.01 0.01 0.00 0.00 0.00 0.00 0.00 0.00 0.00 0.00 0.00 0.00 0.00 0.00 0.01 0.02 0.02 0.02 0.02 0.03 0.03 0.02 0.03 0.05 0.07 0.07 0.06 0.06 0.05 0.05 0.05 0.05 0.05 0.04 0.03 0.03 0.04 0.06 0.06 0.07 0.06 0.03 0.02 0.02 0.01 0.01 0.00 0.00 0.00
0.01 0.00 0.00 0.00 0.00 0.00 0.00 0.00 0.00 0.00 0.00 0.00 0.01 0.01 0.01 0.02 0.02 0.02 0.02 0.02 0.02 0.02 0.02 0.04 0.07 0.07 0.06 0.07 0.07 0.05 0.05 0.05 0.05 0.05 0.04 0.05 0.05 0.05 0.06 0.05 0.05 0.06 0.04 0.03 0.02 0.01 0.01 0.00 0.00
0.01 0.01 0.00 0.00 0.00 0.00 0.00 0.00 0.00 0.00 0.00 0.00 0.01 0.00 0.01 0.02 0.03 0.02 0.01 0.01 0.02 0.02 0.02 0.02 0.04 0.06 0.07 0.07 0.07 0.07 0.06 0.04 0.05 0.05 0.06 0.05 0.05 0.06 0.07 0.05 0.05 0.05 0.05 0.04 0.03 0.02 0.01 0.01 0.01
0.01 0.01 0.01 0.01 0.00 0.00 0.00 0.00 0.00 0.00 0.00 0.00 0.01 0.01 0.01 0.00 0.01 0.02 0.02 0.02 0.02 0.02 0.02 0.01 0.02 0.04 0.07 0.10 0.08 0.07 0.06 0.06 0.05 0.05 0.05 0.05 0.05 0.05 0.05 0.04 0.04 0.05 0.05 0.04 0.03 0.02 0.01 0.01 0.01
0.00 0.01 0.01 0.01 0.01 0.01 0.00 0.00 0.00 0.00 0.00 0.01 0.01 0.01 0.01 0.01 0.01 0.01 0.01 0.02 0.02 0.03 0.03 0.02 0.01 0.02 0.05 0.09 0.11 0.08 0.05 0.05 0.04 0.03 0.03 0.04 0.03 0.02 0.02 0.02 0.03 0.04 0.04 0.03 0.02 0.02 0.02 0.01 0.01
0.01 0.01 0.01 0.01 0.01 0.01 0.01 0.00 0.00 0.00 0.00 0.01 0.01 0.01 0.01 0.01 0.01 0.01 0.01 0.02 0.02 0.02 0.03 0.02 0.02 0.01 0.02 0.04 0.09 0.11 0.07 0.04 0.03 0.03 0.03 0.03 0.03 0.02 0.01 0.01 0.01 0.01 0.02 0.02 0.01 0.01 0.01 0.01 0.01
0.01 0.01 0.01 0.01 0.00 0.01 0.01 0.01 0.00 0.00 0.00 0.01 0.01 0.01 0.01 0.01 0.01 0.01 0.02 0.02 0.02 0.02 0.02 0.02 0.01 0.01 0.01 0.02 0.04 0.09 0.10 0.06 0.04 0.05 0.05 0.04 0.03 0.04 0.03 0.02 0.01 0.01 0.01 0.01 0.01 0.01 0.01 0.01 0.00
0.01 0.00 0.00 0.01 0.00 0.00 0.00 0.00 0.00 0.00 0.00 0.01 0.01 0.01 0.01 0.01 0.01 0.02 0.02 0.02 0.02 0.02 0.02 0.02 0.01 0.01 0.01 0.01 0.02 0.04 0.10 0.09 0.05 0.04 0.07 0.07 0.05 0.04 0.05 0.04 0.03 0.02 0.01 0.01 0.01 0.01 0.01 0.01 0.01
0.01 0.00 0.00 0.00 0.00 0.00 0.00 0.00 0.00 0.00 0.00 0.00 0.00 0.01 0.01 0.02 0.02 0.02 0.03 0.03 0.02 0.01 0.01 0.01 0.01 0.01 0.01 0.01 0.01 0.02 0.05 0.09 0.06 0.04 0.06 0.08 0.08 0.06 0.04 0.04 0.04 0.04 0.03 0.02 0.01 0.01 0.01 0.01 0.01
0.01 0.01 0.01 0.00 0.00 0.00 0.00 0.00 0.00 0.00 0.00 0.00 0.00 0.01 0.01 0.01 0.03 0.02 0.02 0.02 0.02 0.02 0.01 0.01 0.01 0.01 0.01 0.01 0.01 0.01 0.02 0.05 0.06 0.05 0.05 0.07 0.07 0.06 0.05 0.04 0.04 0.05 0.05 0.03 0.01 0.01 0.00 0.00 0.00
0.01 0.01 0.01 0.01 0.00 0.00 0.00 0.00 0.00 0.00 0.00 0.00 0.01 0.01 0.01 0.01 0.02 0.03 0.03 0.02 0.01 0.01 0.01 0.01 0.01 0.01 0.01 0.01 0.01 0.01 0.02 0.03 0.03 0.04 0.04 0.04 0.05 0.05 0.04 0.03 0.04 0.04 0.05 0.04 0.03 0.02 0.01 0.00 0.00
0.01 0.00 0.01 0.01 0.01 0.01 0.01 0.01 0.00 0.00 0.00 0.00 0.00 0.00 0.01 0.01 0.01 0.02 0.03 0.03 0.01 0.01 0.01 0.01 0.01 0.01 0.01 0.01 0.01 0.01 0.01 0.02 0.02 0.03 0.03 0.03 0.03 0.03 0.04 0.04 0.05 0.05 0.04 0.04 0.04 0.03 0.02 0.01 0.00
0.00 0.00 0.00 0.01 0.01 0.01 0.01 0.01 0.00 0.00 0.00 0.00 0.00 0.00 0.00 0.01 0.01 0.01 0.01 0.02 0.02 0.02 0.01 0.01 0.01 0.01 0.01 0.02 0.01 0.00 0.00 0.01 0.01 0.02 0.02 0.02 0.03 0.02 0.02 0.02 0.03 0.04 0.04 0.04 0.04 0.03 0.03 0.03 0.02
0.00 0.00 0.01 0.01 0.02 0.02 0.01 0.01 0.00 0.00 0.00 0.00 0.00 0.00 0.00 0.00 0.00 0.01 0.01 0.01 0.01 0.01 0.01 0.01 0.01 0.01 0.01 0.01 0.01 0.01 0.01 0.00 0.01 0.01 0.02 0.02 0.02 0.02 0.02 0.02 0.02 0.04 0.04 0.04 0.04 0.04 0.04 0.04 0.03
0.00 0.01 0.02 0.02 0.02 0.01 0.00 0.00 0.00 0.00 0.00 0.00 0.00 0.00 0.00 0.00 0.00 0.00 0.01 0.02 0.02 0.02 0.01 0.02 0.02 0.01 0.01 0.01 0.01 0.01 0.01 0.01 0.01 0.01 0.01 0.01 0.01 0.02 0.02 0.02 0.02 0.02 0.02 0.02 0.03 0.03 0.04 0.05 0.04
0.00 0.01 0.02 0.02 0.01 0.00 0.00 0.00 0.00 0.00 0.00 0.00 0.00 0.00 0.00 0.00 0.00 0.00 0.01 0.01 0.02 0.03 0.02 0.02 0.02 0.02 0.01 0.01 0.01 0.01 0.01 0.01 0.01 0.01 0.01 0.01 0.01 0.01 0.02 0.01 0.01 0.01 0.01 0.01 0.01 0.02 0.02 0.03 0.04
0.00 0.00 0.01 0.02 0.01 0.01 0.00 0.00 0.00 0.00 0.00 0.00 0.00 0.00 0.00 0.00 0.00 0.00 0.01 0.01 0.02 0.02 0.03 0.03 0.02 0.01 0.01 0.01 0.00 0.00 0.00 0.00 0.00 0.01 0.01 0.01 0.01 0.01 0.02 0.02 0.02 0.01 0.01 0.01 0.01 0.01 0.02 0.02 0.02
0.00 0.00 0.01 0.02 0.02 0.01 0.00 0.00 0.00 0.00 0.00 0.00 0.00 0.00 0.00 0.00 0.00 0.00 0.01 0.01 0.02 0.02 0.03 0.03 0.02 0.02 0.01 0.01 0.01 0.00 0.00 0.00 0.00 0.01 0.01 0.00 0.00 0.01 0.01 0.02 0.02 0.02 0.02 0.02 0.02 0.02 0.02 0.02 0.02
0.01 0.01 0.01 0.02 0.02 0.01 0.01 0.00 0.00 0.00 0.00 0.00 0.00 0.01 0.01 0.00 0.00 0.00 0.01 0.01 0.02 0.02 0.02 0.03 0.02 0.02 0.01 0.01 0.00 0.00 0.00 0.00 0.00 0.01 0.01 0.00 0.00 0.00 0.01 0.01 0.01 0.01 0.01 0.01 0.02 0.02 0.02 0.03 0.02
0.01 0.01 0.01 0.02 0.01 0.01 0.01 0.01 0.00 0.00 0.00 0.00 0.00 0.01 0.01 0.01 0.01 0.01 0.01 0.02 0.02 0.02 0.02 0.02 0.02 0.01 0.01 0.00 0.00 0.00 0.00 0.00 0.00 0.01 0.01 0.00 0.00 0.01 0.01 0.01 0.01 0.01 0.01 0.01 0.01 0.02 0.02 0.02 0.02
MSLP
1012.19 1012.54 1012.95 1013.29 1013.47 1013.39 1013.03 1012.42 1011.66 1010.87 1010.20 1009.77 1009.63 1009.78 1010.16 1010.67 1011.19 1011.61 1011.90 1012.05 1012.11 1012.17 1012.31 1012.58 1013.01 1013.56 1014.15 1014.73 1015.22 1015.58 1015.81 1015.94 1016.03 1016.12 1016.26 1016.47 1016.72 1016.98 1017.22 1017.41 1017.54 1017.61 1017.66 1017.73 1017.83 1017.98 1018.16 1018.34 1018.50
1012.62 1012.98 1013.32 1013.54 1013.54 1013.28 1012.74 1012.00 1011.17 1010.39 1009.79 1009.47 1009.45 1009.71 1010.16 1010.68 1011.17 1011.53 1011.73 1011.81 1011.82 1011.88 1012.05 1012.38 1012.88 1013.50 1014.16 1014.78 1015.30 1015.67 1015.92 1016.06 1016.16 1016.29 1016.46 1016.69 1016.96 1017.24 1017.47 1017.65 1017.75 1017.81 1017.85 1017.92 1018.02 1018.18 1018.37 1018.56 1018.70
1012.97 1013.29 1013.53 1013.60 1013.42 1012.98 1012.30 1011.48 1010.63 1009.90 1009.42 1009.23 1009.36 1009.74 1010.26 1010.80 1011.25 1011.54 1011.66 1011.66 1011.63 1011.66 1011.84 1012.20 1012.74 1013.40 1014.10 1014.75 1015.29 1015.68 1015.93 1016.10 1016.24 1016.39 1016.60 1016.86 1017.15 1017.43 1017.67 1017.83 1017.93 1017.98 1018.03 1018.11 1018.23 1018.40 1018.60 1018.78 1018.93
1013.16 1013.42 1013.55 1013.47 1013.15 1012.57 1011.80 1010.95 1010.14 1009.51 1009.17 1009.15 1009.42 1009.91 1010.49 1011.04 1011.45 1011.68 1011.72 1011.65 1011.57 1011.57 1011.73 1012.10 1012.65 1013.32 1014.02 1014.67 1015.21 1015.61 1015.88 1016.08 1016.25 1016.45 1016.69 1016.98 1017.29 1017.57 1017.81 1017.97 1018.08 1018.15 1018.22 1018.33 1018.48 1018.67 1018.88 1019.07 1019.20
1013.21 1013.39 1013.42 1013.23 1012.79 1012.14 1011.35 1010.53 1009.81 1009.32 1009.13 1009.27 1009.67 1010.24 1010.86 1011.40 1011.77 1011.93 1011.90 1011.78 1011.65 1011.62 1011.77 1012.11 1012.64 1013.29 1013.96 1014.58 1015.10 1015.50 1015.79 1016.02 1016.23 1016.47 1016.75 1017.06 1017.38 1017.68 1017.92 1018.09 1018.22 1018.32 1018.43 1018.57 1018.76 1018.98 1019.21 1019.40 1019.52
1013.14 1013.25 1013.20 1012.94 1012.46 1011.80 1011.05 1010.31 1009.72 1009.38 1009.34 1009.60 1010.10 1010.71 1011.34 1011.84 1012.16 1012.26 1012.18 1012.02 1011.87 1011.83 1011.96 1012.28 1012.76 1013.36 1013.97 1014.54 1015.02 1015.40 1015.70 1015.95 1016.20 1016.47 1016.79 1017.12 1017.46 1017.76 1018.01 1018.20 1018.35 1018.49 1018.64 1018.83 1019.07 1019.32 1019.56 1019.74 1019.85
1013.01 1013.07 1012.98 1012.70 1012.24 1011.63 1010.97 1010.36 1009.91 1009.71 1009.78 1010.12 1010.65 1011.26 1011.84 1012.29 1012.54 1012.60 1012.51 1012.34 1012.20 1012.17 1012.29 1012.58 1013.02 1013.54 1014.08 1014.58 1015.00 1015.34 1015.63 1015.90 1016.18 1016.49 1016.83 1017.19 1017.53 1017.84 1018.09 1018.29 1018.46 1018.63 1018.83 1019.07 1019.33 1019.61 1019.85 1020.04 1020.14
1012.87 1012.91 1012.81 1012.56 1012.15 1011.64 1011.10 1010.63 1010.32 1010.23 1010.38 1010.74 1011.24 1011.79 1012.29 1012.66 1012.86 1012.89 1012.80 1012.67 1012.58 1012.58 1012.73 1013.01 1013.40 1013.84 1014.29 1014.69 1015.05 1015.34 1015.61 1015.89 1016.19 1016.53 1016.90 1017.27 1017.61 1017.91 1018.16 1018.36 1018.55 1018.74 1018.97 1019.23 1019.52 1019.81 1020.06 1020.23 1020.32
1012.77 1012.80 1012.72 1012.52 1012.21 1011.81 1011.41 1011.07 1010.87 1010.85 1011.02 1011.35 1011.78 1012.23 1012.62 1012.90 1013.04 1013.07 1013.02 1012.96 1012.95 1013.03 1013.22 1013.50 1013.85 1014.22 1014.57 1014.88 1015.15 1015.39 1015.64 1015.91 1016.23 1016.59 1016.97 1017.35 1017.69 1017.98 1018.22 1018.41 1018.60 1018.80 1019.04 1019.31 1019.61 1019.89 1020.13 1020.29 1020.36
1012.72 1012.75 1012.70 1012.57 1012.35 1012.08 1011.80 1011.57 1011.45 1011.47 1011.63 1011.89 1012.20 1012.52 1012.79 1012.98 1013.08 1013.12 1013.13 1013.17 1013.27 1013.45 1013.70 1014.00 1014.33 1014.63 1014.90 1015.11 1015.30 1015.49 1015.70 1015.96 1016.29 1016.66 1017.06 1017.44 1017.77 1018.05 1018.27 1018.45 1018.62 1018.81 1019.04 1019.31 1019.60 1019.87 1020.09 1020.22 1020.28
1012.72 1012.76 1012.74 1012.67 1012.54 1012.37 1012.20 1012.06 1012.00 1012.03 1012.14 1012.31 1012.50 1012.68 1012.82 1012.93 1012.99 1013.05 1013.14 1013.29 1013.51 1013.79 1014.13 1014.46 1014.77 1015.03 1015.22 1015.36 1015.47 1015.60 1015.78 1016.04 1016.36 1016.74 1017.14 1017.52 1017.85 1018.11 1018.31 1018.46 1018.62 1018.79 1019.01 1019.26 1019.52 1019.77 1019.96 1020.07 1020.10
1012.78 1012.81 1012.82 1012.79 1012.72 1012.64 1012.55 1012.49 1012.48 1012.51 1012.57 1012.65 1012.73 1012.78 1012.81 1012.83 1012.87 1012.95 1013.10 1013.34 1013.67 1014.06 1014.46 1014.84 1015.15 1015.37 1015.51 1015.59 1015.65 1015.74 1015.89 1016.13 1016.45 1016.84 1017.23 1017.61 1017.92 1018.17 1018.34 1018.48 1018.61 1018.77 1018.96 1019.19 1019.43 1019.65 1019.81 1019.90 1019.92
1012.89 1012.91 1012.93 1012.92 1012.90 1012.88 1012.87 1012.88 1012.91 1012.96 1012.99 1013.01 1013.00 1012.95 1012.88 1012.82 1012.81 1012.89 1013.08 1013.38 1013.78 1014.23 1014.69 1015.11 1015.43 1015.65 1015.76 1015.81 1015.84 1015.91 1016.04 1016.27 1016.58 1016.96 1017.34 1017.70 1018.00 1018.23 1018.39 1018.52 1018.63 1018.77 1018.94 1019.15 1019.37 1019.56 1019.71 1019.78 1019.79
1013.09 1013.09 1013.09 1013.09 1013.10 1013.13 1013.19 1013.27 1013.37 1013.46 1013.51 1013.51 1013.44 1013.32 1013.17 1013.04 1012.96 1013.00 1013.16 1013.46 1013.87 1014.35 1014.83 1015.27 1015.61 1015.84 1015.96 1016.02 1016.05 1016.12 1016.25 1016.48 1016.78 1017.13 1017.50 1017.83 1018.11 1018.32 1018.47 1018.57 1018.68 1018.81 1018.97 1019.16 1019.36 1019.55 1019.69 1019.76 1019.76
1013.41 1013.38 1013.35 1013.35 1013.38 1013.46 1013.58 1013.75 1013.94 1014.10 1014.21 1014.24 1014.17 1014.01 1013.80 1013.58 1013.41 1013.35 1013.43 1013.65 1014.00 1014.44 1014.90 1015.34 1015.69 1015.95 1016.12 1016.22 1016.29 1016.39 1016.54 1016.77 1017.05 1017.38 1017.72 1018.02 1018.26 1018.45 1018.57 1018.67 1018.77 1018.89 1019.05 1019.23 1019.43 1019.61 1019.75 1019.83 1019.85
1013.87 1013.81 1013.76 1013.74 1013.78 1013.90 1014.10 1014.37 1014.67 1014.95 1015.16 1015.26 1015.22 1015.06 1014.79 1014.48 1014.20 1013.99 1013.92 1013.99 1014.21 1014.55 1014.94 1015.34 1015.71 1016.01 1016.24 1016.41 1016.56 1016.72 1016.91 1017.14 1017.42 1017.71 1018.00 1018.26 1018.47 1018.61 1018.72 1018.81 1018.90 1019.02 1019.17 1019.35 1019.55 1019.73 1019.88 1019.98 1020.03
1014.50 1014.40 1014.31 1014.28 1014.33 1014.49 1014.77 1015.15 1015.58 1015.99 1016.33 1016.53 1016.57 1016.42 1016.12 1015.73 1015.30 1014.92 1014.64 1014.51 1014.54 1014.71 1014.98 1015.32 1015.68 1016.02 1016.33 1016.59 1016.84 1017.07 1017.32 1017.57 1017.84 1018.11 1018.35 1018.55 1018.71 1018.83 1018.91 1018.98 1019.06 1019.18 1019.33 1019.50 1019.70 1019.89 1020.05 1020.17 1020.25
1015.27 1015.13 1015.01 1014.96 1015.01 1015.21 1015.56 1016.03 1016.59 1017.14 1017.62 1017.95 1018.08 1017.98 1017.67 1017.20 1016.64 1016.06 1015.56 1015.19 1014.99 1014.95 1015.08 1015.32 1015.65 1016.01 1016.38 1016.75 1017.09 1017.42 1017.73 1018.02 1018.28 1018.52 1018.72 1018.87 1018.99 1019.06 1019.12 1019.18 1019.26 1019.36 1019.50 1019.67 1019.86 1020.05 1020.22 1020.37 1020.48
1016.14 1015.98 1015.82 1015.74 1015.79 1016.00 1016.39 1016.95 1017.60 1018.29 1018.90 1019.36 1019.59 1019.56 1019.27 1018.76 1018.09 1017.35 1016.63 1016.02 1015.57 1015.32 1015.26 1015.37 1015.64 1016.00 1016.42 1016.87 1017.30 1017.71 1018.09 1018.41 1018.68 1018.90 1019.06 1019.18 1019.26 1019.32 1019.36 1019.41 1019.48 1019.58 1019.71 1019.86 1020.03 1020.21 1020.37 1020.53 1020.67
1017.09 1016.88 1016.69 1016.58 1016.61 1016.81 1017.21 1017.80 1018.52 1019.29 1020.00 1020.57 1020.92 1020.98 1020.74 1020.24 1019.51 1018.66 1017.78 1016.96 1016.29 1015.81 1015.56 1015.53 1015.70 1016.03 1016.46 1016.94 1017.44 1017.92 1018.34 1018.69 1018.98 1019.20 1019.35 1019.45 1019.52 1019.57 1019.61 1019.66 1019.74 1019.83 1019.94 1020.08 1020.22 1020.37 1020.51 1020.66 1020.80
1018.05 1017.82 1017.60 1017.45 1017.44 1017.61 1017.97 1018.54 1019.26 1020.05 1020.83 1021.48 1021.92 1022.09 1021.94 1021.49 1020.79 1019.90 1018.92 1017.97 1017.13 1016.46 1016.03 1015.84 1015.88 1016.13 1016.51 1016.99 1017.51 1018.01 1018.47 1018.85 1019.15 1019.38 1019.54 1019.65 1019.73 1019.79 1019.86 1019.93 1020.02 1020.12 1020.22 1020.33 1020.43 1020.54 1020.65 1020.77 1020.90
1019.03 1018.79 1018.55 1018.36 1018.29 1018.39 1018.68 1019.17 1019.82 1020.57 1021.34 1022.02 1022.54 1022.81 1022.78 1022.44 1021.82 1020.98 1020.01 1019.00 1018.05 1017.25 1016.66 1016.31 1016.21 1016.33 1016.63 1017.05 1017.54 1018.03 1018.49 1018.88 1019.20 1019.44 1019.63 1019.77 1019.89 1019.99 1020.10 1020.21 1020.33 1020.44 1020.54 1020.62 1020.69 1020.74 1020.80 1020.87 1020.97
1020.05 1019.81 1019.56 1019.35 1019.22 1019.23 1019.40 1019.75 1020.26 1020.90 1021.59 1022.25 1022.79 1023.15 1023.25 1023.06 1022.59 1021.88 1020.99 1020.01 1019.04 1018.17 1017.46 1016.97 1016.72 1016.69 1016.86 1017.18 1017.58 1018.02 1018.45 1018.83 1019.16 1019.42 1019.64 1019.83 1020.00 1020.16 1020.33 1020.49 1020.64 1020.77 1020.87 1020.94 1020.97 1020.98 1020.99 1021.00 1021.05
1021.14 1020.93 1020.70 1020.47 1020.29 1020.19 1020.21 1020.38 1020.70 1021.15 1021.69 1022.26 1022.79 1023.19 1023.40 1023.37 1023.08 1022.55 1021.82 1020.95 1020.03 1019.15 1018.38 1017.78 1017.39 1017.21 1017.23 1017.41 1017.70 1018.05 1018.42 1018.77 1019.09 1019.37 1019.62 1019.85 1020.07 1020.30 1020.52 1020.74 1020.93 1021.09 1021.20 1021.26 1021.27 1021.25 1021.21 1021.17 1021.17
1022.33 1022.19 1022.00 1021.78 1021.55 1021.35 1021.21 1021.16 1021.24 1021.46 1021.79 1022.20 1022.64 1023.04 1023.32 1023.44 1023.34 1023.01 1022.47 1021.77 1020.97 1020.14 1019.36 1018.69 1018.20 1017.89 1017.76 1017.79 1017.95 1018.19 1018.48 1018.77 1019.07 1019.34 1019.61 1019.87 1020.13 1020.40 1020.67 1020.93 1021.16 1021.35 1021.49 1021.55 1021.56 1021.51 1021.44 1021.37 1021.33
1023.63 1023.58 1023.46 1023.27 1023.01 1022.71 1022.41 1022.14 1021.97 1021.91 1021.98 1022.19 1022.48 1022.81 1023.12 1023.33 1023.40 1023.27 1022.94 1022.43 1021.78 1021.06 1020.32 1019.65 1019.08 1018.67 1018.41 1018.31 1018.34 1018.47 1018.66 1018.89 1019.13 1019.38 1019.64 1019.90 1020.18 1020.47 1020.76 1021.05 1021.31 1021.53 1021.68 1021.77 1021.78 1021.75 1021.67 1021.59 1021.53
1025.00 1025.05 1025.01 1024.86 1024.59 1024.21 1023.77 1023.29 1022.86 1022.53 1022.33 1022.28 1022.39 1022.60 1022.87 1023.12 1023.30 1023.33 1023.20 1022.88 1022.41 1021.83 1021.18 1020.54 1019.97 1019.49 1019.15 1018.95 1018.86 1018.88 1018.98 1019.13 1019.31 1019.51 1019.73 1019.96 1020.22 1020.50 1020.79 1021.08 1021.36 1021.59 1021.77 1021.88 1021.93 1021.93 1021.88 1021.81 1021.75
1026.33 1026.48 1026.53 1026.42 1026.15 1025.71 1025.15 1024.50 1023.84 1023.25 1022.79 1022.49 1022.38 1022.44 1022.62 1022.86 1023.09 1023.24 1023.25 1023.11 1022.81 1022.38 1021.86 1021.30 1020.76 1020.29 1019.90 1019.63 1019.47 1019.40 1019.41 1019.47 1019.58 1019.71 1019.87 1020.06 1020.27 1020.51 1020.77 1021.04 1021.30 1021.54 1021.74 1021.89 1021.98 1022.03 1022.03 1022.02 1021.99
1027.53 1027.75 1027.84 1027.77 1027.49 1027.01 1026.36 1025.58 1024.76 1023.96 1023.28 1022.77 1022.45 1022.34 1022.40 1022.57 1022.80 1023.00 1023.12 1023.12 1022.97 1022.69 1022.31 1021.86 1021.40 1020.96 1020.59 1020.29 1020.08 1019.95 1019.89 1019.88 1019.91 1019.96 1020.05 1020.16 1020.31 1020.48 1020.69 1020.92 1021.16 1021.39 1021.61 1021.79 1021.94 1022.05 1022.13 1022.18 1022.22
1028.47 1028.70 1028.80 1028.72 1028.43 1027.92 1027.22 1026.37 1025.44 1024.52 1023.69 1023.02 1022.54 1022.27 1022.20 1022.29 1022.47 1022.68 1022.85 1022.94 1022.91 1022.77 1022.52 1022.20 1021.84 1021.47 1021.14 1020.85 1020.63 1020.46 1020.35 1020.27 1020.23 1020.21 1020.22 1020.26 1020.33 1020.43 1020.57 1020.75 1020.96 1021.18 1021.40 1021.62 1021.82 1021.99 1022.14 1022.27 1022.38
Thickness
5720 5726 5730 5723 5707 5700 5704 5723 5737 5738 5741 5747 5750 5747 5740 5730 5724 5712 5725 5736 5736 5734 5730 5727 5726 5725 5724 5722 5721 5720 5719 5718 5717 5717 5716 5716 5715 5715 5715 5714 5714 5714 5713 5713 5713 5713 5712 5712 5712
5717 5723 5720 5710 5695 5689 5704 5723 5727 5733 5738 5744 5744 5742 5736 5726 5726 5722 5725 5730 5731 5730 5727 5724 5723 5721 5720 5719 5718 5716 5715 5714 5713 5713 5712 5712 5711 5711 5710 5710 5710 5710 5709 5709 5708 5708 5708 5708 5708
5713 5718 5706 5699 5693 5694 5706 5722 5726 5732 5737 5737 5733 5734 5727 5719 5722 5720 5722 5726 5727 5725 5723 5720 5718 5717 5716 5715 5714 5712 5711 5710 5709 5709 5708 5707 5707 5707 5706 5706 5705 5705 5705 5704 5704 5704 5704 5703 5703
5707 5704 5700 5690 5688 5704 5712 5719 5724 5724 5727 5731 5728 5719 5717 5718 5719 5718 5720 5722 5721 5719 5717 5715 5713 5712 5711 5710 5709 5708 5707 5706 5705 5704 5703 5703 5702 5702 5702 5701 5701 5700 5700 5700 5699 5699 5699 5699 5699
5700 5692 5683 5679 5688 5704 5715 5720 5721 5717 5718 5721 5720 5710 5703 5710 5715 5714 5715 5716 5715 5713 5711 5709 5708 5707 5706 5705 5704 5703 5702 5701 5700 5699 5698 5698 5697 5697 5696 5696 5696 5696 5695 5695 5694 5694 5694 5694 5694
5685 5685 5674 5673 5686 5701 5709 5715 5714 5711 5712 5715 5712 5703 5694 5701 5705 5706 5709 5710 5710 5707 5706 5703 5702 5701 5700 5699 5698 5697 5696 5695 5694 5693 5693 5692 5691 5691 5691 5691 5690 5690 5690 5690 5689 5689 5689 5689 5689
5674 5673 5670 5676 5682 5691 5699 5706 5702 5700 5702 5703 5707 5697 5689 5693 5697 5701 5702 5703 5703 5702 5700 5697 5695 5695 5694 5693 5692 5691 5690 5689 5688 5687 5686 5686 5685 5685 5685 5685 5684 5684 5684 5683 5683 5683 5683 5683 5683
5673 5668 5668 5672 5675 5681 5691 5695 5695 5692 5692 5700 5700 5689 5682 5686 5691 5694 5695 5695 5695 5694 5693 5691 5690 5689 5688 5687 5686 5685 5684 5683 5682 5680 5680 5679 5678 5678 5678 5678 5678 5677 5677 5677 5677 5677 5677 5677 5678
5668 5655 5656 5666 5669 5673 5682 5683 5685 5688 5686 5688 5687 5682 5682 5683 5684 5684 5683 5684 5684 5685 5685 5685 5684 5683 5682 5681 5680 5679 5678 5677 5675 5674 5672 5671 5671 5672 5672 5672 5671 5671 5671 5671 5671 5671 5671 5671 5671
5653 5643 5653 5664 5666 5666 5671 5672 5674 5675 5672 5673 5673 5673 5675 5674 5674 5673 5673 5672 5674 5675 5676 5678 5677 5677 5676 5675 5674 5673 5672 5670 5669 5667 5666 5665 5666 5666 5666 5666 5665 5665 5665 5665 5665 5665 5665 5665 5665
5646 5642 5652 5656 5658 5658 5659 5660 5665 5662 5658 5661 5662 5662 5664 5665 5665 5665 5666 5666 5667 5667 5668 5670 5670 5670 5669 5669 5668 5667 5666 5665 5663 5661 5660 5660 5660 5660 5660 5660 5659 5659 5659 5659 5659 5658 5659 5659 5659
5639 5641 5646 5646 5648 5648 5648 5650 5650 5650 5651 5658 5660 5660 5658 5657 5657 5658 5658 5659 5660 5660 5661 5662 5663 5663 5663 5662 5662 5661 5661 5659 5658 5656 5655 5655 5655 5654 5654 5654 5653 5653 5653 5653 5652 5652 5653 5653 5653
5632 5633 5638 5638 5639 5639 5638 5637 5638 5641 5647 5652 5653 5652 5650 5650 5651 5652 5654 5654 5654 5653 5653 5654 5655 5656 5656 5656 5655 5654 5653 5653 5652 5651 5650 5649 5648 5648 5648 5648 5647 5647 5646 5646 5646 5646 5646 5645 5646
5628 5627 5629 5631 5632 5632 5628 5628 5630 5634 5641 5642 5642 5642 5643 5644 5644 5645 5646 5647 5647 5647 5646 5647 5648 5648 5649 5649 5648 5647 5647 5645 5645 5644 5643 5642 5641 5641 5641 5640 5640 5639 5639 5639 5639 5638 5638 5637 5637
5621 5616 5617 5622 5624 5624 5619 5616 5622 5630 5632 5631 5632 5634 5636 5638 5639 5639 5640 5640 5640 5640 5640 5640 5640 5640 5640 5640 5640 5640 5639 5638 5637 5637 5636 5635 5634 5633 5633 5633 5632 5631 5631 5631 5631 5630 5630 5629 5629
5610 5606 5603 5614 5616 5615 5607 5605 5619 5624 5623 5622 5624 5625 5627 5629 5632 5634 5634 5634 5633 5633 5632 5632 5633 5632 5632 5631 5631 5631 5631 5630 5629 5629 5628 5627 5626 5626 5626 5625 5624 5623 5623 5623 5622 5621 5620 5619 5619
5595 5592 5598 5603 5610 5608 5601 5602 5612 5617 5616 5615 5617 5618 5618 5620 5623 5625 5627 5627 5626 5625 5625 5624 5624 5624 5623 5623 5622 5622 5622 5622 5621 5620 5619 5618 5618 5618 5617 5617 5616 5615 5615 5614 5613 5612 5611 5610 5609
5585 5590 5596 5596 5601 5600 5595 5597 5603 5608 5608 5607 5609 5610 5610 5611 5613 5616 5617 5617 5618 5617 5617 5616 5616 5616 5616 5615 5614 5613 5612 5612 5611 5611 5610 5610 5610 5609 5608 5608 5608 5607 5605 5604 5603 5602 5602 5600 5599
5586 5586 5586 5590 5593 5590 5589 5592 5596 5599 5598 5599 5600 5601 5601 5603 5605 5607 5607 5608 5608 5608 5608 5608 5607 5607 5607 5606 5604 5602 5601 5601 5602 5602 5601 5601 5600 5599 5599 5599 5598 5597 5596 5595 5594 5592 5591 5589 5588
5577 5574 5576 5578 5582 5581 5581 5585 5590 5592 5592 5594 5594 5594 5594 5594 5595 5596 5597 5598 5598 5598 5598 5599 5598 5598 5598 5597 5596 5595 5594 5592 5593 5592 5591 5591 5590 5590 5589 5589 5588 5587 5586 5585 5584 5582 5580 5578 5577
5566 5563 5565 5565 5568 5572 5569 5572 5581 5587 5589 5589 5590 5589 5589 5589 5587 5587 5587 5587 5586 5587 5587 5589 5589 5589 5589 5589 5588 5586 5585 5583 5582 5581 5582 5581 5580 5580 5579 5579 5578 5577 5576 5574 5573 5572 5570 5567 5566
5553 5560 5559 5555 5548 5548 5557 5547 5574 5580 5580 5582 5582 5581 5580 5580 5579 5578 5577 5577 5577 5576 5577 5578 5579 5579 5579 5580 5579 5577 5576 5574 5573 5573 5573 5572 5571 5569 5569 5569 5568 5567 5566 5565 5563 5562 5560 5558 5555
5545 5551 5549 5545 5540 5536 5546 5538 5558 5574 5572 5575 5575 5574 5573 5571 5570 5569 5568 5567 5568 5567 5566 5567 5568 5569 5569 5570 5570 5569 5567 5566 5565 5564 5563 5562 5561 5560 5559 5558 5558 5557 5556 5555 5554 5552 5550 5548 5546
5538 5538 5536 5533 5526 5517 5538 5535 5547 5562 5571 5572 5570 5567 5564 5562 5561 5559 5558 5557 5556 5556 5556 5556 5557 5558 5559 5559 5559 5559 5558 5557 5555 5554 5553 5552 5551 5550 5550 5549 5548 5547 5546 5545 5544 5543 5541 5539 5537
5525 5516 5508 5507 5503 5516 5542 5535 5544 5565 5571 5568 5564 5560 5556 5553 5550 5548 5546 5545 5545 5545 5545 5546 5546 5547 5548 5548 5548 5548 5548 5548 5546 5545 5544 5543 5542 5541 5540 5539 5538 5537 5536 5536 5534 5533 5531 5529 5527
5513 5513 5503 5501 5509 5522 5530 5527 5545 5557 5558 5559 5556 5552 5548 5544 5540 5538 5536 5535 5534 5535 5534 5535 5536 5536 5537 5537 5537 5537 5538 5537 5537 5536 5535 5534 5533 5532 5531 5529 5528 5527 5526 5525 5524 5523 5521 5519 5517
5506 5504 5511 5502 5498 5498 5518 5532 5538 5546 5545 5545 5543 5540 5537 5534 5531 5528 5526 5525 5524 5524 5524 5524 5525 5525 5526 5526 5527 5527 5526 5526 5526 5525 5525 5524 5524 5523 5521 5520 5518 5517 5515 5514 5512 5511 5509 5507 5505
5500 5501 5491 5486 5486 5495 5517 5525 5527 5528 5529 5532 5530 5527 5526 5524 5520 5518 5516 5514 5513 5514 5513 5513 5513 5514 5514 5515 5515 5516 5515 5515 5515 5515 5515 5514 5513 5512 5511 5509 5508 5506 5504 5503 5501 5500 5498 5496 5494
5487 5486 5485 5482 5485 5487 5497 5514 5525 5522 5523 5521 5519 5517 5515 5511 5508 5506 5504 5503 5502 5503 5502 5501 5501 5502 5502 5503 5503 5503 5503 5503 5504 5504 5504 5503 5502 5501 5500 5498 5497 5495 5493 5492 5490 5488 5486 5485 5483
5480 5481 5476 5467 5469 5479 5481 5498 5516 5513 5512 5511 5507 5506 5503 5499 5496 5494 5492 5491 5490 5489 5489 5489 5489 5490 5490 5490 5491 5491 5491 5491 5492 5492 5491 5491 5490 5489 5488 5487 5485 5483 5482 5480 5478 5476 5475 5473 5472